| time (UTC) | temp F | wind direction | speed MPH | gust MPH | rain 1hr in | rain 24hr in | rain mn in | humidity % | barometer mb |
| 20260831203045 | 86 | 165 | 4.0 | 8.0 | 0.00 | 0.00 | 0.00 | 39 | 1004.7 |
| 20260831201540 | 85 | 178 | 4.0 | 9.0 | 0.00 | 0.00 | 0.00 | 41 | 1004.8 |
| 20260831200043 | 84 | 182 | 4.0 | 8.0 | 0.00 | 0.00 | 0.00 | 46 | 1004.8 |
| 20260831194535 | 84 | 179 | 4.0 | 9.0 | 0.00 | 0.00 | 0.00 | 49 | 1005.0 |
| 20260831193040 | 83 | 213 | 5.0 | 11.0 | 0.00 | 0.00 | 0.00 | 52 | 1005.2 |
| 20260831191535 | 83 | 249 | 1.0 | 7.0 | 0.00 | 0.00 | 0.00 | 52 | 1005.1 |
| 20260831190027 | 81 | 169 | 4.0 | 7.0 | 0.00 | 0.00 | 0.00 | 55 | 1005.2 |
| 20260831184525 | 80 | 319 | 1.0 | 7.0 | 0.00 | 0.00 | 0.00 | 56 | 1005.3 |
| 20260831183020 | 80 | 236 | 2.0 | 7.0 | 0.00 | 0.00 | 0.00 | 56 | 1005.5 |
| 20260831181522 | 79 | 190 | 2.0 | 6.0 | 0.00 | 0.00 | 0.00 | 59 | 1005.6 |
| 20260831180024 | 77 | 201 | 3.0 | 8.0 | 0.00 | 0.00 | 0.00 | 60 | 1005.5 |
| 20260831174519 | 77 | 184 | 2.0 | 7.0 | 0.00 | 0.00 | 0.00 | 62 | 1005.5 |
| 20260831173003 | 75 | 207 | 1.0 | 5.0 | 0.00 | 0.00 | 0.00 | 64 | 1005.5 |
| 20260831171601 | 75 | 239 | 3.0 | 5.0 | 0.00 | 0.00 | 0.00 | 64 | 1005.5 |
| 20260831164603 | 73 | 276 | 2.0 | 6.0 | 0.00 | 0.00 | 0.00 | 67 | 1005.3 |
| 20260831163052 | 72 | 227 | 0.0 | 3.0 | 0.00 | 0.00 | 0.00 | 69 | 1005.2 |
| 20260831161547 | 70 | 184 | 0.0 | 3.0 | 0.00 | 0.00 | 0.00 | 69 | 1005.2 |
| 20260831160048 | 70 | 175 | 0.0 | 2.0 | 0.00 | 0.00 | 0.00 | 71 | 1005.2 |
| 20260831154542 | 68 | 171 | 0.0 | 2.0 | 0.00 | 0.00 | 0.00 | 75 | 1005.1 |
| 20260831153039 | 67 | 171 | 0.0 | 1.0 | 0.00 | 0.00 | 0.00 | 78 | 1005.0 |
| 20260831151537 | 66 | 171 | 0.0 | 2.0 | 0.00 | 0.00 | 0.00 | 80 | 1005.1 |
| 20260831150043 | 64 | 171 | 0.0 | 1.0 | 0.00 | 0.00 | 0.00 | 81 | 1004.9 |
| 20260831144536 | 62 | 171 | 1.0 | 2.0 | 0.00 | 0.00 | 0.00 | 84 | 1004.8 |
| 20260831143032 | 61 | 171 | 1.0 | 2.0 | 0.00 | 0.00 | 0.00 | 86 | 1004.8 |
| 20260831141529 | 60 | 171 | 0.0 | 2.0 | 0.00 | 0.00 | 0.00 | 87 | 1004.5 |
| 20260831140027 | 60 | 171 | 1.0 | 2.0 | 0.00 | 0.00 | 0.00 | 87 | 1004.3 |
| 20260831134525 | 60 | 171 | 1.0 | 2.0 | 0.00 | 0.00 | 0.00 | 87 | 1004.2 |
| 20260831133023 | 60 | 171 | 0.0 | 2.0 | 0.00 | 0.00 | 0.00 | 86 | 1004.0 |
| 20260831131521 | 60 | 171 | 0.0 | 1.0 | 0.00 | 0.00 | 0.00 | 85 | 1003.9 |
| 20260831130021 | 61 | 171 | 1.0 | 3.0 | 0.00 | 0.00 | 0.00 | 85 | 1003.8 |
| 20260831124519 | 61 | 172 | 0.0 | 2.0 | 0.00 | 0.00 | 0.00 | 85 | 1003.9 |
| 20260831123019 | 61 | 172 | 0.0 | 2.0 | 0.00 | 0.00 | 0.00 | 85 | 1003.9 |
| 20260831121517 | 61 | 172 | 0.0 | 2.0 | 0.00 | 0.00 | 0.00 | 84 | 1003.8 |
| 20260831120031 | 62 | 172 | 0.0 | 2.0 | 0.00 | 0.00 | 0.00 | 85 | 1003.6 |
| 20260831114526 | 62 | 172 | 1.0 | 2.0 | 0.00 | 0.00 | 0.00 | 83 | 1003.7 |
| 20260831113013 | 62 | 172 | 1.0 | 3.0 | 0.00 | 0.00 | 0.00 | 83 | 1003.7 |
| 20260831111510 | 62 | 178 | 0.0 | 2.0 | 0.00 | 0.00 | 0.00 | 82 | 1003.9 |
| 20260831110009 | 63 | 178 | 0.0 | 2.0 | 0.00 | 0.00 | 0.00 | 81 | 1003.9 |
| 20260831104507 | 63 | 178 | 0.0 | 0.0 | 0.00 | 0.00 | 0.00 | 80 | 1003.9 |
| 20260831103006 | 64 | 178 | 0.0 | 2.0 | 0.00 | 0.00 | 0.00 | 80 | 1004.0 |
| 20260831101505 | 64 | 178 | 1.0 | 2.0 | 0.00 | 0.00 | 0.00 | 80 | 1003.9 |
| 20260831100004 | 64 | 178 | 0.0 | 2.0 | 0.00 | 0.00 | 0.00 | 79 | 1004.0 |
| 20260831094502 | 64 | 178 | 0.0 | 1.0 | 0.00 | 0.00 | 0.00 | 76 | 1003.9 |
| 20260831093100 | 65 | 178 | 0.0 | 0.0 | 0.00 | 0.00 | 0.00 | 76 | 1003.9 |
| 20260831091601 | 65 | 178 | 0.0 | 0.0 | 0.00 | 0.00 | 0.00 | 74 | 1003.9 |
| 20260831090057 | 65 | 178 | 0.0 | 0.0 | 0.00 | 0.00 | 0.00 | 71 | 1003.8 |
| 20260831084606 | 65 | 178 | 1.0 | 2.0 | 0.00 | 0.00 | 0.00 | 71 | 1003.7 |
| 20260831083104 | 66 | 178 | 1.0 | 2.0 | 0.00 | 0.00 | 0.00 | 71 | 1003.7 |
| 20260831081551 | 66 | 178 | 0.0 | 0.0 | 0.00 | 0.00 | 0.00 | 70 | 1003.7 |
| 20260831080049 | 67 | 178 | 0.0 | 2.0 | 0.00 | 0.00 | 0.00 | 69 | 1003.6 |
| 20260831074547 | 67 | 178 | 0.0 | 2.0 | 0.00 | 0.00 | 0.00 | 68 | 1003.5 |
| 20260831073045 | 67 | 178 | 1.0 | 3.0 | 0.00 | 0.00 | 0.00 | 68 | 1003.4 |
| 20260831071542 | 67 | 190 | 0.0 | 2.0 | 0.00 | 0.00 | 0.00 | 69 | 1003.4 |
| 20260831070040 | 68 | 190 | 0.0 | 2.0 | 0.00 | 0.00 | 0.00 | 69 | 1003.5 |
| 20260831064537 | 68 | 190 | 1.0 | 2.0 | 0.00 | 0.00 | 0.00 | 70 | 1003.6 |
| 20260831063037 | 68 | 190 | 0.0 | 2.0 | 0.00 | 0.00 | 0.00 | 71 | 1003.5 |
| 20260831061540 | 69 | 190 | 0.0 | 2.0 | 0.00 | 0.00 | 0.00 | 70 | 1003.5 |
| 20260831060043 | 69 | 195 | 1.0 | 3.0 | 0.00 | 0.00 | 0.00 | 70 | 1003.5 |
| 20260831054535 | 69 | 195 | 0.0 | 2.0 | 0.00 | 0.00 | 0.00 | 70 | 1003.4 |
| 20260831053035 | 69 | 195 | 1.0 | 2.0 | 0.00 | 0.00 | 0.00 | 69 | 1003.4 |
| 20260831051534 | 70 | 195 | 0.0 | 2.0 | 0.00 | 0.00 | 0.00 | 68 | 1003.4 |
| 20260831050034 | 70 | 195 | 1.0 | 2.0 | 0.00 | 0.00 | 0.00 | 67 | 1003.3 |
| 20260831044534 | 71 | 195 | 0.0 | 2.0 | 0.00 | 0.00 | 0.00 | 66 | 1003.4 |
| 20260831043033 | 72 | 195 | 0.0 | 2.0 | 0.00 | 0.00 | 0.00 | 64 | 1003.3 |
| 20260831041533 | 73 | 195 | 0.0 | 1.0 | 0.00 | 0.00 | 0.00 | 63 | 1003.2 |
| 20260831040034 | 73 | 195 | 0.0 | 1.0 | 0.00 | 0.00 | 0.00 | 61 | 1003.0 |
| 20260831034534 | 75 | 195 | 0.0 | 1.0 | 0.00 | 0.00 | 0.00 | 59 | 1002.8 |
| 20260831033037 | 76 | 195 | 0.0 | 0.0 | 0.00 | 0.00 | 0.00 | 57 | 1002.5 |
| 20260831031531 | 78 | 195 | 0.0 | 1.0 | 0.00 | 0.00 | 0.00 | 54 | 1002.4 |
| 20260831030030 | 78 | 195 | 0.0 | 2.0 | 0.00 | 0.00 | 0.00 | 53 | 1002.2 |
| 20260831024529 | 79 | 195 | 1.0 | 3.0 | 0.00 | 0.00 | 0.00 | 52 | 1002.0 |
| 20260831023029 | 80 | 193 | 1.0 | 4.0 | 0.00 | 0.00 | 0.00 | 51 | 1002.0 |
| 20260831021527 | 81 | 198 | 2.0 | 4.0 | 0.00 | 0.00 | 0.00 | 50 | 1001.8 |
| 20260831020027 | 82 | 190 | 2.0 | 4.0 | 0.00 | 0.00 | 0.00 | 48 | 1001.7 |
| 20260831014526 | 82 | 180 | 2.0 | 5.0 | 0.00 | 0.00 | 0.00 | 48 | 1001.7 |
| 20260831013025 | 84 | 176 | 1.0 | 6.0 | 0.00 | 0.00 | 0.00 | 46 | 1001.8 |
| 20260831011525 | 85 | 176 | 3.0 | 6.0 | 0.00 | 0.00 | 0.00 | 45 | 1001.7 |
| 20260831010025 | 85 | 182 | 2.0 | 6.0 | 0.00 | 0.00 | 0.00 | 45 | 1001.7 |
| 20260831004524 | 87 | 186 | 3.0 | 7.0 | 0.00 | 0.00 | 0.00 | 42 | 1001.7 |
| 20260831003025 | 88 | 192 | 3.0 | 6.0 | 0.00 | 0.00 | 0.00 | 40 | 1001.5 |
| 20260831001523 | 88 | 171 | 3.0 | 7.0 | 0.00 | 0.00 | 0.00 | 39 | 1001.5 |
| 20260831000023 | 89 | 180 | 3.0 | 6.0 | 0.00 | 0.00 | 0.00 | 35 | 1001.5 |
| 20260830234529 | 91 | 178 | 2.0 | 6.0 | 0.00 | 0.00 | 0.00 | 34 | 1001.5 |
| 20260830233021 | 91 | 171 | 4.0 | 7.0 | 0.00 | 0.00 | 0.00 | 32 | 1001.6 |
| 20260830231519 | 91 | 179 | 3.0 | 7.0 | 0.00 | 0.00 | 0.00 | 35 | 1001.7 |
| 20260830230018 | 91 | 176 | 2.0 | 7.0 | 0.00 | 0.00 | 0.00 | 37 | 1001.8 |
| 20260830224516 | 91 | 181 | 4.0 | 9.0 | 0.00 | 0.00 | 0.00 | 37 | 1002.1 |
| 20260830223015 | 91 | 194 | 4.0 | 8.0 | 0.00 | 0.00 | 0.00 | 38 | 1002.2 |
| 20260830221514 | 91 | 191 | 3.0 | 8.0 | 0.00 | 0.00 | 0.00 | 37 | 1002.4 |
| 20260830220018 | 91 | 196 | 3.0 | 8.0 | 0.00 | 0.00 | 0.00 | 37 | 1002.5 |
| 20260830214513 | 91 | 174 | 4.0 | 9.0 | 0.00 | 0.00 | 0.00 | 38 | 1002.8 |
| 20260830213015 | 91 | 190 | 6.0 | 13.0 | 0.00 | 0.00 | 0.00 | 38 | 1002.8 |
| 20260830211512 | 92 | 201 | 4.0 | 10.0 | 0.00 | 0.00 | 0.00 | 38 | 1002.9 |
| 20260830210010 | 91 | 227 | 2.0 | 9.0 | 0.00 | 0.00 | 0.00 | 36 | 1003.0 |
| 20260830204508 | 90 | 182 | 2.0 | 8.0 | 0.00 | 0.00 | 0.00 | 38 | 1003.0 |